Location: Fernhill
(41.0167°S, 175.6333°E)
Time: 12:30:05
(UTC+00:00)

Radarsat Rocket - Pass Details

Date: 08 November 2025
Orbit: 933 x 1491 km, 100.5° (Epoch: 10 December)

Event Time Altitude Azimuth Distance (km) Brightness Sun altitude
Rises 07:52:17 0° 162° (SSE) 3,829 7.3 -8.5°
Reaches altitude 10° 07:54:42 10° 160° (SSE) 2,930 6.7 -8.9°
Maximum altitude 08:01:22 72° 75° (ENE) 1,237 4.4 -10.0°
Drops below altitude 10° 08:08:52 10° 351° (N) 3,289 6.5 -11.2°
Sets 08:11:42 0° 349° (NNW) 4,326 7.1 -11.6°
